Date_and_time,latitude,longitude,wind_speed,RelWindDirFrom,WindDirFrom,air_pressure,air_temperature,relative_humidity,Temp,platform_speed_wrt_ground,air_pressure_at_mean_sea_level,platform_orientation
2018-04-15 23:40,50.6304383333333,-96.9807533333333,5.8,6.5,16,1000.37,0.9,61,3.19,0.0,1028.48,90.0
2018-04-15 23:50,50.6304383333333,-96.9807533333333,5.9,6.9,28,1000.39,0.8,65,3.19,0.0,1028.50,90.0
2018-04-16 00:00,50.6304383333333,-96.9807516666667,5.9,6.9,24,1000.41,0.7,68,3.20,0.0,1028.54,90.0
2018-04-16 00:10,50.63043,-96.9807583333333,5.8,6.7,12,1000.36,0.6,67,3.21,0.0,1028.48,90.0
2018-04-16 00:20,50.63043,-96.9807516666667,7.0,8.3,10,1000.31,0.7,61,3.22,0.0,1028.43,90.0
2018-04-16 00:30,50.6304316666667,-96.9807516666667,6.3,8.0,8,1000.21,0.8,57,3.23,0.0,1028.33,90.0
2018-04-16 00:40,50.6304333333333,-96.9807466666667,5.8,7.0,2,1000.10,1.0,51,3.25,0.0,1028.20,90.0
2018-04-16 00:50,50.630435,-96.9807483333333,5.2,6.4,350,1000.11,1.4,43,3.26,0.0,1028.20,90.0
2018-04-16 01:00,50.6304366666667,-96.9807516666667,4.6,5.9,352,1000.15,1.6,40,3.28,0.0,1028.23,0.0
2018-04-16 01:10,50.63044,-96.9807533333333,6.1,8.3,7,1000.24,1.4,40,3.29,0.0,1028.33,0.0
2018-04-16 01:20,50.6304533333333,-96.980765,7.4,8.6,9,1000.32,0.5,50,3.30,0.0,1028.46,0.0
2018-04-16 01:30,50.6304433333333,-96.98076,7.2,8.1,5,1000.35,-0.0,54,3.31,0.0,1028.52,0.0
2018-04-16 01:40,50.6304433333333,-96.9807533333333,5.9,7.0,6,1000.33,-0.3,56,3.32,0.0,1028.52,0.0
2018-04-16 01:50,50.6304433333333,-96.9807533333333,6.3,7.4,357,1000.37,0.3,42,3.33,0.0,1028.53,0.0
2018-04-16 02:00,50.6304433333333,-96.980755,5.5,6.5,4,1000.54,0.7,38,3.34,0.0,1028.68,270.0
2018-04-16 02:10,50.6304383333333,-96.98076,6.3,7.4,5,1000.60,0.5,40,3.34,0.0,1028.76,270.0
2018-04-16 02:20,50.63044,-96.980755,7.1,8.0,13,1000.64,0.4,43,3.34,0.0,1028.80,270.0
2018-04-16 02:30,50.6304666666667,-96.9807733333333,5.6,7.3,16,1000.71,0.0,50,3.35,0.0,1028.89,270.0
2018-04-16 02:40,50.6304433333333,-96.9807633333333,5.1,6.0,28,1000.73,-0.2,52,3.35,0.0,1028.90,270.0
2018-04-16 02:50,50.630445,-96.9807566666667,4.3,5.4,47,1000.71,-0.4,57,3.36,0.0,1028.88,270.0
2018-04-16 03:00,50.6304483333333,-96.980755,3.8,4.5,70,1000.70,-0.8,63,3.36,0.0,1028.89,311.7
2018-04-16 03:10,50.6304333333333,-96.98077,3.0,4.2,66,1000.66,-1.3,71,3.37,0.0,1028.92,311.7
2018-04-16 03:20,50.63044,-96.9807516666667,2.3,3.7,9,1000.61,-1.8,76,3.37,0.0,1028.93,311.7
2018-04-16 03:30,50.6304366666667,-96.9807433333333,3.0,4.0,4,1000.59,-1.8,73,3.38,0.0,1028.92,311.7
2018-04-16 03:40,50.6304333333333,-96.9807466666667,1.8,2.5,19,1000.57,-1.7,71,3.38,0.0,1028.86,311.7
2018-04-16 03:50,50.6304333333333,-96.9807466666667,1.3,1.8,349,1000.51,-1.7,69,3.38,0.0,1028.79,311.7
2018-04-16 04:00,50.630435,-96.9807533333333,0.6,1.2,353,1000.37,-1.6,67,3.36,0.0,1028.65,0.0
2018-04-16 04:10,50.63045,-96.98076,0.5,1.2,22,1000.26,-1.4,66,3.35,0.0,1028.52,0.0
2018-04-16 04:20,50.63044,-96.9807583333333,0.8,1.1,33,1000.20,-1.4,65,3.36,0.0,1028.49,0.0
2018-04-16 04:30,50.6304283333333,-96.9807866666667,1.1,1.9,349,1000.10,-1.6,65,3.35,0.0,1028.40,0.0
2018-04-16 04:40,50.6304333333333,-96.980765,1.2,1.8,326,999.98,-1.6,62,3.34,0.0,1028.29,0.0
2018-04-16 04:50,50.6304333333333,-96.98076,0.0,0.7,0,999.90,-1.5,58,3.34,0.0,1028.22,0.0
2018-04-16 05:00,50.6304333333333,-96.9807616666667,0.0,0.0,0,999.86,-1.7,59,3.34,0.0,1028.22,142.0
2018-04-16 05:10,50.6304066666667,-96.980785,0.4,1.2,63,999.80,-1.7,60,3.34,0.0,1028.18,142.0
2018-04-16 05:20,50.630425,-96.9807716666667,1.4,2.2,67,999.69,-2.1,69,3.33,0.0,1028.09,142.0
2018-04-16 05:30,50.6304333333333,-96.9807616666667,2.2,2.6,67,999.48,-2.6,68,3.33,0.0,1027.90,142.0
2018-04-16 05:40,50.63043,-96.9807566666667,1.7,2.6,60,999.47,-3.0,75,3.33,0.0,1027.91,142.0
2018-04-16 05:50,50.63043,-96.98076,1.5,2.9,26,999.44,-3.4,84,3.33,0.0,1027.89,142.0
2018-04-16 06:00,50.6304316666667,-96.9807583333333,2.5,2.9,53,999.28,-3.1,80,3.31,0.0,1027.71,161.1
2018-04-16 06:10,50.6304333333333,-96.9807583333333,3.6,5.1,40,999.32,-3.2,81,3.32,0.0,1027.75,161.1
2018-04-16 06:20,50.6304366666667,-96.98076,3.3,4.1,27,999.40,-3.6,86,3.31,0.0,1027.86,161.1
2018-04-16 06:30,50.63043,-96.980755,3.3,4.1,19,999.35,-3.6,83,3.30,0.0,1027.81,161.1
2018-04-16 06:40,50.6304383333333,-96.9807583333333,3.1,3.8,20,999.34,-3.4,76,3.29,0.0,1027.78,161.1
2018-04-16 06:50,50.63045,-96.9807583333333,2.7,4.3,41,999.32,-2.8,64,3.28,0.0,1027.75,161.1
2018-04-16 07:00,50.630445,-96.980745,2.6,3.8,54,999.29,-2.3,57,3.26,0.0,1027.68,48.3
2018-04-16 07:10,50.630445,-96.98075,2.3,3.4,38,999.01,-2.2,55,3.26,0.0,1027.41,48.3
2018-04-16 07:20,50.6304433333333,-96.9807516666667,3.0,3.9,20,998.83,-2.2,53,3.27,0.0,1027.26,48.3
2018-04-16 07:30,50.6304416666667,-96.98075,3.7,4.3,12,998.78,-2.3,50,3.27,0.0,1027.23,48.3
2018-04-16 07:40,50.6304383333333,-96.9807533333333,3.4,4.1,9,998.71,-2.1,48,3.27,0.0,1027.17,48.3
2018-04-16 07:50,50.6304216666667,-96.980745,3.7,4.2,4,998.73,-2.3,49,3.27,0.0,1027.18,48.3
2018-04-16 08:00,50.6304316666667,-96.9807483333333,3.7,4.0,5,998.80,-2.3,48,3.27,0.0,1027.26,90.0
2018-04-16 08:10,50.6304316666667,-96.9807533333333,4.1,4.5,2,998.85,-2.4,48,3.25,0.0,1027.34,90.0
2018-04-16 08:20,50.630435,-96.9807583333333,4.0,4.5,9,998.83,-2.6,49,3.25,0.0,1027.33,90.0
2018-04-16 08:30,50.6304266666667,-96.9807566666667,4.1,4.6,21,998.67,-3.1,54,3.24,0.0,1027.18,90.0
2018-04-16 08:40,50.6304283333333,-96.980755,4.7,5.7,8,998.58,-3.7,59,3.23,0.0,1027.09,90.0
2018-04-16 08:50,50.6304283333333,-96.9807516666667,4.7,5.3,9,998.46,-3.6,55,3.23,0.0,1026.93,90.0
2018-04-16 09:00,50.6304283333333,-96.9807533333333,5.1,5.4,4,998.43,-3.8,57,3.23,0.0,1026.90,167.4
2018-04-16 09:10,50.63043,-96.980755,4.7,5.3,14,998.47,-3.8,57,3.23,0.0,1026.95,167.4
2018-04-16 09:20,50.6304266666667,-96.98075,4.9,6.1,355,998.46,-4.0,57,3.22,0.0,1026.96,167.4
2018-04-16 09:30,50.6304383333333,-96.980755,4.6,5.4,359,998.51,-3.9,56,3.22,0.0,1026.99,167.4
2018-04-16 09:40,50.63044,-96.9807533333333,5.2,6.0,3,998.40,-4.3,61,3.22,0.0,1026.91,167.4
2018-04-16 09:50,50.6304383333333,-96.980755,4.9,5.9,356,998.39,-4.7,63,3.21,0.0,1026.92,167.4
2018-04-16 10:00,50.6304383333333,-96.9807583333333,4.7,6.0,356,998.49,-4.8,63,3.20,0.0,1027.03,270.0
2018-04-16 10:10,50.6304366666667,-96.9807583333333,5.1,6.0,360,998.62,-4.8,62,3.20,0.0,1027.18,270.0
2018-04-16 10:20,50.6304383333333,-96.9807583333333,4.6,5.7,349,998.64,-4.7,58,3.20,0.0,1027.22,270.0
2018-04-16 10:30,50.6304383333333,-96.9807566666667,4.7,5.8,359,998.67,-4.7,58,3.19,0.0,1027.28,270.0
2018-04-16 10:40,50.6304383333333,-96.9807566666667,5.1,6.4,4,998.74,-4.8,58,3.20,0.0,1027.36,270.0
2018-04-16 10:50,50.63044,-96.9807566666667,5.7,6.7,4,998.64,-4.8,58,3.20,0.0,1027.26,270.0
2018-04-16 11:00,50.63044,-96.980755,6.4,7.2,1,998.49,-4.9,58,3.19,0.0,1027.12,345.5
2018-04-16 11:10,50.63044,-96.980755,6.5,7.8,1,998.49,-5.0,58,3.18,0.0,1027.13,345.5
2018-04-16 11:20,50.63044,-96.980755,6.8,8.1,360,998.50,-5.2,59,3.18,0.0,1027.15,345.5
2018-04-16 11:30,50.63044,-96.980755,6.8,7.9,1,998.47,-5.3,60,3.17,0.0,1027.15,345.5
2018-04-16 11:40,50.63044,-96.980755,6.5,7.9,0,998.50,-5.4,60,3.17,0.0,1027.20,345.5
2018-04-16 11:50,50.6304216666667,-96.980755,7.4,8.9,4,998.46,-5.5,62,3.17,0.0,1027.17,345.5
2018-04-16 12:00,50.6304116666667,-96.9807533333333,7.3,8.5,2,998.51,-5.5,62,3.17,0.0,1027.22,142.0
2018-04-16 12:10,50.630425,-96.9807533333333,7.4,8.5,2,998.57,-5.3,61,3.17,0.0,1027.26,142.0
2018-04-16 12:20,50.63042,-96.9807483333333,7.5,9.3,11,998.57,-5.3,62,3.16,0.0,1027.27,142.0
2018-04-16 12:30,50.6304283333333,-96.98075,8.0,9.2,15,998.52,-5.4,62,3.15,0.0,1027.23,142.0
2018-04-16 12:40,50.6304316666667,-96.9807516666667,7.9,9.1,14,998.53,-5.4,64,3.15,0.0,1027.24,142.0
2018-04-16 12:50,50.63043,-96.9807516666667,7.4,8.8,12,998.59,-5.6,66,3.14,0.0,1027.32,142.0
2018-04-16 13:00,50.63043,-96.9807516666667,7.3,8.8,12,998.64,-5.5,64,3.12,0.0,1027.37,360.0
2018-04-16 13:10,50.63043,-96.9807516666667,7.2,8.7,13,998.59,-5.4,64,3.12,0.0,1027.32,360.0
2018-04-16 13:20,50.63043,-96.9807533333333,7.6,9.1,12,998.57,-5.2,63,3.12,0.0,1027.30,360.0
2018-04-16 13:30,50.6304283333333,-96.9807533333333,8.3,9.7,19,998.53,-5.3,64,3.12,0.0,1027.26,360.0
2018-04-16 13:40,50.6304283333333,-96.9807533333333,7.9,8.8,27,998.44,-5.6,70,3.12,0.0,1027.20,360.0
2018-04-16 13:50,50.6304283333333,-96.9807533333333,7.6,8.7,29,998.36,-5.6,73,3.12,0.0,1027.11,360.0
2018-04-16 14:00,50.6304283333333,-96.9807533333333,7.2,8.1,22,998.24,-5.2,71,3.11,0.0,1026.96,360.0
2018-04-16 14:10,50.6304283333333,-96.9807516666667,7.9,9.1,29,998.18,-5.1,71,3.09,0.0,1026.88,360.0
2018-04-16 14:20,50.6304283333333,-96.9807533333333,8.2,9.4,25,998.07,-4.9,70,3.08,0.0,1026.77,360.0
2018-04-16 14:30,50.6304283333333,-96.9807533333333,8.1,9.6,21,998.08,-4.8,70,3.08,0.0,1026.77,360.0
2018-04-16 14:40,50.6304216666667,-96.980805,8.0,9.0,22,997.96,-4.6,70,3.07,0.0,1026.65,360.0
2018-04-16 14:50,50.6304466666667,-96.9807633333333,7.7,9.1,25,997.82,-4.5,72,3.07,0.0,1026.49,360.0
2018-04-16 15:00,50.6304416666667,-96.9807616666667,7.9,8.9,18,997.87,-4.4,71,3.07,0.0,1026.54,330.1
2018-04-16 15:10,50.6304383333333,-96.98076,8.0,9.0,20,997.91,-4.2,69,3.07,0.0,1026.55,330.1
2018-04-16 15:20,50.6304366666667,-96.9807583333333,7.8,8.8,18,997.85,-4.0,70,3.08,0.0,1026.49,330.1
2018-04-16 15:30,50.6304366666667,-96.98076,8.0,8.9,16,997.65,-3.8,68,3.08,0.0,1026.28,330.1
2018-04-16 15:40,50.6304383333333,-96.9807616666667,7.0,8.6,14,997.48,-3.3,65,3.07,0.0,1026.09,330.1
2018-04-16 15:50,50.6304383333333,-96.9807616666667,7.1,8.6,17,997.49,-2.8,64,3.06,0.0,1026.05,330.1
2018-04-16 16:00,50.6304383333333,-96.9807633333333,8.2,9.4,19,997.57,-2.7,64,3.06,0.0,1026.12,356.8
2018-04-16 16:10,50.6304383333333,-96.9807616666667,7.8,9.3,12,997.63,-2.4,65,3.06,0.0,1026.15,356.8
2018-04-16 16:20,50.6304383333333,-96.9807616666667,7.7,8.9,17,997.66,-2.0,63,3.06,0.0,1026.16,356.8
2018-04-16 16:30,50.6304383333333,-96.9807616666667,8.1,9.1,22,997.60,-2.0,64,3.05,0.0,1026.09,356.8
2018-04-16 16:40,50.6304383333333,-96.9807616666667,8.0,8.8,17,997.66,-1.9,64,3.05,0.0,1026.13,356.8
2018-04-16 16:50,50.6304,-96.9807666666667,8.1,9.2,21,997.61,-1.6,64,3.05,0.0,1026.06,356.8
2018-04-16 17:00,50.630425,-96.9807433333333,8.0,9.2,23,997.64,-1.5,65,3.06,0.0,1026.07,90.0
2018-04-16 17:10,50.630435,-96.9807466666667,8.0,9.2,23,997.65,-1.4,64,3.06,0.0,1026.07,90.0
2018-04-16 17:20,50.6304383333333,-96.9807466666667,8.1,9.1,25,997.61,-1.3,63,3.06,0.0,1026.02,90.0
2018-04-16 17:30,50.6304383333333,-96.9807483333333,8.3,9.2,30,997.54,-1.0,63,3.07,0.0,1025.90,90.0
2018-04-16 17:40,50.6304383333333,-96.9807483333333,8.0,9.2,26,997.39,-0.7,61,3.07,0.0,1025.71,90.0
2018-04-16 17:50,50.6304366666667,-96.98075,7.4,8.6,17,997.39,-0.5,58,3.07,0.0,1025.70,90.0
2018-04-16 18:00,50.6304383333333,-96.98075,8.1,9.6,21,997.28,-0.3,53,3.08,0.0,1025.55,90.0
2018-04-16 18:10,50.6304366666667,-96.9807516666667,9.8,11.3,21,997.00,-0.2,50,3.08,0.0,1025.24,90.0
2018-04-16 18:20,50.6304283333333,-96.9807983333333,9.4,11.0,19,996.76,-0.1,50,3.10,0.0,1024.98,90.0
2018-04-16 18:30,50.6304333333333,-96.9807833333333,9.1,11.1,19,996.60,0.2,49,3.11,0.0,1024.80,90.0
2018-04-16 18:40,50.6304316666667,-96.98078,9.8,11.5,23,996.38,0.3,50,3.11,0.0,1024.55,90.0
2018-04-16 18:50,50.6304333333333,-96.98078,9.3,10.4,23,996.20,0.4,54,3.12,0.0,1024.36,90.0
2018-04-16 19:00,50.6304316666667,-96.9807783333333,8.9,10.5,23,995.99,0.6,55,3.12,0.0,1024.12,229.4
2018-04-16 19:10,50.6304316666667,-96.9807783333333,9.0,10.3,22,995.82,0.8,54,3.13,0.0,1023.93,229.4
2018-04-16 19:20,50.6304316666667,-96.9807783333333,9.4,11.5,20,995.65,0.9,54,3.14,0.0,1023.74,229.4
2018-04-16 19:30,50.6304316666667,-96.98078,10.1,11.4,20,995.50,1.1,53,3.15,0.0,1023.56,229.4
2018-04-16 19:40,50.6304316666667,-96.98078,9.5,11.2,16,995.44,1.5,48,3.15,0.0,1023.47,229.4
2018-04-16 19:50,50.63043,-96.9807783333333,9.5,11.6,15,995.34,1.8,45,3.16,0.0,1023.34,229.4
2018-04-16 20:00,50.6304166666667,-96.9807833333333,9.9,12.1,12,995.26,2.2,38,3.17,0.0,1023.23,246.4
2018-04-16 20:10,50.6304216666667,-96.98078,10.0,12.1,12,995.11,2.4,36,3.18,0.0,1023.05,246.4
2018-04-16 20:20,50.6304183333333,-96.9807783333333,9.6,11.5,10,994.99,2.6,36,3.18,0.0,1022.91,246.4
2018-04-16 20:30,50.63043,-96.9807783333333,9.6,11.7,9,994.91,2.8,35,3.19,0.0,1022.81,246.4
2018-04-16 20:40,50.6304366666667,-96.98077,9.2,10.3,10,994.88,3.0,34,3.20,0.0,1022.77,246.4
2018-04-16 20:50,50.630435,-96.980775,9.5,11.7,10,994.80,3.3,32,3.22,0.0,1022.66,246.4
2018-04-16 21:00,50.63044,-96.9807833333333,10.3,12.5,11,994.66,3.6,31,3.23,0.0,1022.48,270.0
2018-04-16 21:10,50.6304583333333,-96.9807833333333,9.8,11.7,8,994.62,3.8,31,3.24,0.0,1022.43,270.0
2018-04-16 21:20,50.6304366666667,-96.9807566666667,9.7,11.8,6,994.57,4.2,29,3.25,0.0,1022.35,270.0
2018-04-16 21:30,50.63044,-96.980755,9.6,12.2,6,994.54,4.7,25,3.25,0.0,1022.27,270.0
2018-04-16 21:40,50.6304383333333,-96.98075,8.2,10.4,3,994.57,4.9,26,3.26,0.0,1022.28,270.0
2018-04-16 21:50,50.6304383333333,-96.9807516666667,9.9,12.0,7,994.39,5.0,26,3.27,0.0,1022.07,270.0
2018-04-16 22:00,50.6304266666667,-96.9807466666667,9.9,11.6,10,994.20,5.0,27,3.29,0.0,1021.87,101.8
2018-04-16 22:10,50.6304366666667,-96.9807583333333,9.4,11.1,12,994.02,4.8,30,3.34,0.0,1021.68,101.8
2018-04-16 22:20,50.6304266666667,-96.9807566666667,8.9,10.2,13,993.93,4.6,32,3.30,0.0,1021.59,101.8
2018-04-16 22:30,50.6304333333333,-96.9807583333333,8.8,10.6,7,994.10,5.0,28,3.31,0.0,1021.73,101.8
2018-04-16 22:40,50.6304366666667,-96.980755,8.9,10.2,11,994.03,5.4,26,3.32,0.0,1021.62,101.8
2018-04-16 22:50,50.6304383333333,-96.9807566666667,8.8,10.1,15,993.91,4.8,35,3.33,0.0,1021.51,101.8
2018-04-16 23:00,50.6304383333333,-96.980755,8.7,10.4,8,993.93,4.8,29,3.33,0.0,1021.52,24.3
2018-04-16 23:10,50.6304383333333,-96.9807566666667,9.4,11.0,9,993.78,5.3,28,3.33,0.0,1021.32,24.3
2018-04-16 23:20,50.6304366666667,-96.9807583333333,10.0,11.2,12,993.62,4.8,33,3.34,0.0,1021.16,24.3
2018-04-16 23:30,50.6304366666667,-96.9807616666667,9.6,11.3,12,993.52,4.3,37,3.34,0.0,1021.07,24.3
2018-04-16 23:40,50.630415,-96.9807733333333,9.9,11.5,7,993.57,4.3,34,3.36,0.0,1021.12,24.3
2018-04-16 23:50,50.6304216666667,-96.9807616666667,9.6,10.8,6,993.67,4.7,31,3.37,0.0,1021.21,24.3
